Location: Nitra
(0.0000°N, 18.0833°E)
Time: 18:07:34
(UTC+02:00)

Daily predictions for brighter satellites

Satellite Brightness Start Highest point End
(mag) Time Altitude Azimuth Time Altitude Azimuth Time Altitude Azimuth
Centaur D-1AR AC-48 4.2 17:48:29 10° SW 17:54:16 69° SSE 18:43:33 10° ENE
Centaur D-1AR AC-48 4.2 17:48:29 10° SW 17:54:17 69° SSE 18:43:33 10° ENE
FENGYUN 3A 4.0 19:07:25 10° S 19:12:46 71° WSW 19:18:04 10° NNW
Cosmos 1544 Rocket 3.7 19:08:53 10° S 19:13:12 81° W 19:17:30 10° N
Tsikada Rocket 4.3 19:09:06 10° SSE 19:14:53 43° E 19:20:38 10° NNE
Ariane Rocket 3.0 19:12:31 10° SSE 19:17:29 60° ENE 19:22:26 10° N
BREEZE-M (TANK) 1.7 19:15:02 10° SSW 19:18:06 52° SE 19:20:14 10° NE
Cosmos 1850 Rocket 3.9 19:13:03 10° N 19:18:09 66° ENE 19:23:18 10° SSE
USA 229 DEB 3.8 19:12:02 10° S 19:18:26 50° ESE 19:24:46 10° NE
USA 229 3.8 19:12:08 10° S 19:18:31 49° ESE 19:24:52 10° NE
Cosmos 1741 Rocket 4.0 19:14:23 10° N 19:19:37 65° ENE 19:24:52 10° SSE
Cosmos 1025 Rocket 4.3 19:16:04 10° NNW 19:20:12 46° W 19:24:20 10° SSW
Shenzhou-11 Module 3.5 19:21:37 10° WNW 19:24:18 33° SW 19:26:59 10° SSE
Centaur Rocket 3.3 19:22:12 10° W 19:26:12 37° NNW 19:27:59 13° NE
Cosmos 1842 3.3 19:23:56 10° N 19:27:43 51° E 19:31:31 10° SSE
DELTA 2 R/B (1) 3.6 19:23:11 10° SW 19:28:41 61° SE 19:33:30 13° ENE
GPS 2-14 Rocket1 2.9 19:27:26 10° WSW 19:31:31 68° NNW 19:34:27 17° ENE
Cosmos 1697 Rocket 4.4 19:30:22 10° NE 19:32:00 13° ENE 19:32:00 13° ENE
Yuri Rocket 3.5 19:26:54 10° SW 19:33:12 75° SSE 19:36:42 18° ENE
YAOGAN 1 2.7 19:29:27 10° S 19:33:46 80° WSW 19:38:05 10° NNW
Fermi 3.9 19:32:19 10° NW 19:36:18 54° NNE 19:38:25 25° E
NOSS 3-1 (C) 3.5 19:37:07 10° S 19:42:12 39° ESE 19:45:49 17° NE
GP-B 4.5 19:40:29 10° NE 19:46:53 15° SE 19:47:55 10° SSE
MONITOR-E 3.9 19:44:41 10° S 19:47:37 88° ENE 19:50:34 10° N
FUSE 4.4 19:42:31 10° WNW 19:47:42 55° SSW 19:51:14 20° SE
BLOCK DM-SL R/B 1.5 19:46:48 10° W 19:48:06 46° WSW 19:48:06 46° WSW
COSMOS 2487 4.5 19:50:34 10° SW 19:53:39 29° WNW 19:56:43 10° NNW
Cosmos 1544 3.4 19:50:23 10° S 19:54:03 68° W 19:57:42 10° N
Cosmos 1513 Rocket 4.4 19:48:49 10° N 19:55:09 71° E 20:01:33 10° S
IRS-1A Rocket 4.2 19:50:29 10° SSE 19:56:06 84° WSW 20:01:37 10° NNW
Cosmos 1464 Rocket 3.9 19:50:10 10° N 19:56:24 81° E 20:02:36 10° S
Milstar 3 4.4 19:54:40 10° W 20:02:21 46° NNW 20:15:52 10° NE
SL-8 R/B 4.1 19:57:57 10° NNW 20:02:28 42° NE 20:02:35 42° NE
Cosmos 1378 3.0 20:03:38 10° N 20:07:08 78° NNE 20:07:08 78° NNE
Cosmos 1892 Rocket 4.5 20:03:28 10° NNW 20:07:48 50° W 20:12:08 10° S
Cosmos 1315 Rocket 2.9 20:07:48 10° N 20:11:55 76° W 20:16:02 10° S
Meteor 2-20 4.5 20:08:55 10° S 20:15:00 77° W 20:21:02 10° N
Ariane H10+ 2.8 20:15:06 10° W 20:18:15 48° W 20:18:15 48° W
BLOCK DM-SL R/B 3.6 20:15:11 10° W 20:19:56 80° S 20:22:01 47° E
Envisat 2.8 20:16:35 11° SSE 20:21:24 88° ENE 20:26:29 10° N
CZ-4C R/B 3.5 20:16:51 10° NNW 20:24:56 63° WSW 20:32:56 10° SSE
SPOT 3 Rocket 3.9 20:35:36 36° S 20:37:38 63° WSW 20:42:41 10° NNW
Cosmos 2278 3.8 20:37:18 10° NNW 20:42:28 69° WNW 20:42:28 69° WNW
Palapa 6 Rocket 4.3 20:37:45 10° SW 20:43:09 56° S 20:43:09 56° S
ARIANE 5 R/B 3.6 20:41:10 10° W 20:48:55 36° NW 20:48:55 36° NW
ARIANE 5 R/B 3.7 20:59:58 10° WNW 21:44:35 - E 21:01:23 28° NW
